Temperature
11 11 10 10 10 11 11 11 11 11 11 10 10 10 10 10 10 10 10 10 10 10 10 10 9 9 9 9 9 9 9 9 9 8 8 9 9 9 9 9 9 9 9
11 10 10 10 10 10 10 10 10 10 10 10 10 10 10 10 10 10 10 10 10 9 9 9 9 9 8 8 8 8 8 8 8 8 7 8 8 9 9 9 9 9 9
10 10 9 9 10 10 10 10 10 10 10 10 10 10 10 10 9 9 9 9 9 9 9 9 8 8 8 8 8 8 7 7 7 7 7 7 8 8 8 8 8 8 8
10 9 9 9 9 9 9 10 10 10 10 9 9 9 9 9 9 9 9 9 9 8 8 8 8 8 7 7 7 7 7 7 7 7 7 7 7 7 7 8 8 8 8
9 8 9 9 9 9 9 9 9 9 9 9 9 9 9 9 9 8 8 8 8 8 8 8 8 7 7 7 7 7 6 6 6 6 6 6 6 6 6 7 7 7 7
8 8 8 8 8 8 9 9 9 9 9 9 8 8 8 8 8 8 8 8 7 8 7 7 7 7 7 7 6 6 6 6 6 6 6 6 6 6 6 6 6 7 7
7 7 7 8 8 8 8 8 8 8 8 8 8 8 8 8 8 7 7 7 7 7 7 7 7 6 6 6 6 6 6 6 6 6 6 5 5 6 6 6 6 6 6
7 7 7 7 7 7 8 8 8 8 8 8 7 7 7 7 7 7 7 7 7 7 7 6 6 6 6 6 6 6 5 5 5 5 5 5 5 5 5 5 5 5 5
6 6 6 7 7 7 7 7 7 7 7 7 7 7 7 7 7 7 7 6 6 6 6 6 6 6 6 6 5 5 5 5 5 5 5 5 5 5 5 5 5 5 5
6 6 6 6 7 7 7 7 7 7 7 7 7 7 6 6 6 6 6 6 6 6 6 6 5 5 5 5 5 5 5 5 5 4 4 4 4 4 4 4 4 4 5
6 5 6 6 6 6 6 6 6 6 6 6 6 6 6 6 6 6 6 6 5 5 5 5 5 5 5 5 5 5 4 4 4 4 4 4 4 4 4 4 4 4 4
5 5 6 6 6 6 6 6 6 6 6 6 6 6 6 5 5 5 5 5 5 5 5 5 5 5 4 4 4 4 4 4 4 4 4 4 4 4 4 4 4 4 4
5 5 5 5 5 5 5 5 5 5 5 5 5 5 5 5 5 5 5 5 5 5 4 4 4 4 4 4 4 4 4 4 3 3 3 3 3 3 3 3 3 3 3
4 4 4 5 5 5 5 5 5 5 5 5 5 5 5 5 5 5 5 4 4 4 4 4 4 3 3 3 3 3 3 3 3 3 3 3 3 3 3 3 3 3 3
4 4 4 4 4 4 4 4 4 4 4 4 4 4 4 4 4 4 4 4 4 3 3 3 3 3 3 3 3 3 3 3 3 3 3 3 3 3 3 3 3 3 3
3 3 3 3 3 3 3 4 4 4 4 4 4 4 4 4 4 3 3 3 3 3 3 3 3 3 3 3 3 2 3 3 3 3 3 3 2 2 3 3 3 3 3
2 2 2 2 2 3 3 3 3 3 3 3 3 3 3 3 3 3 3 3 3 3 2 2 2 2 2 2 2 2 2 2 2 2 2 2 2 2 2 2 2 2 2
1 2 2 2 2 2 2 3 3 3 3 3 3 3 2 3 3 2 2 2 2 2 2 2 2 2 2 2 2 2 2 2 2 2 2 2 2 2 2 2 2 2 2
1 1 1 1 1 1 2 2 2 2 2 2 2 2 2 2 2 2 2 2 1 1 1 1 1 1 1 1 1 1 1 1 1 1 1 1 1 1 2 1 2 2 2
1 1 1 1 1 1 1 1 1 1 1 1 1 1 1 1 1 1 1 1 1 1 1 1 1 1 1 1 1 1 1 1 1 1 1 1 1 1 1 1 1 1 1
0 0 0 0 0 0 0 0 0 1 1 1 1 1 1 1 1 1 1 0 0 0 0 0 0 0 0 1 1 1 0 0 0 0 0 0 1 1 1 1 1 1 1
-0 -0 -0 -0 -0 -0 -0 -0 -0 -0 0 0 0 0 0 0 0 0 -0 -0 -0 -1 -1 -1 -1 -0 -0 0 0 0 0 0 -0 -0 -0 -0 0 0 1 1 1 1 1
-1 -1 -1 -1 -1 -1 -1 -1 -1 -0 -0 -0 -0 -0 -0 -0 -0 -1 -1 -1 -1 -1 -1 -1 -1 -1 -1 -1 -0 -0 -0 -0 -1 -0 -0 -0 -0 0 0 0 0 0 0
-1 -1 -1 -1 -1 -1 -1 -1 -1 -1 -1 -1 -1 -1 -1 -1 -1 -1 -1 -2 -2 -2 -2 -2 -2 -2 -1 -1 -1 -1 -1 -1 -1 -1 -1 -1 -0 -0 -0 -0 -0 -0 -0
-2 -2 -2 -2 -2 -2 -2 -2 -1 -1 -1 -1 -1 -2 -2 -2 -2 -2 -2 -2 -2 -2 -2 -2 -2 -2 -2 -2 -1 -1 -1 -1 -1 -1 -1 -1 -1 -1 -1 -1 -1 -1 -0
-2 -2 -3 -3 -2 -2 -2 -2 -2 -2 -2 -2 -2 -2 -2 -2 -2 -3 -2 -2 -2 -2 -2 -2 -2 -2 -2 -2 -1 -1 -1 -1 -1 -1 -1 -1 -1 -1 -1 -1 -1 -1 -1
Wind_Speed
10 8 8 8 8 8 8 8 8 7 6 5 5 5 5 4 4 4 5 6 5 5 5 5 5 5 6 7 7 7 7 6 5 6 7 8 9 9 9 8 8 9 10
8 8 8 7 8 9 8 8 8 8 7 6 5 4 5 4 4 4 5 6 6 6 5 6 6 6 6 7 8 7 7 6 5 5 6 6 7 8 8 9 9 10 9
9 8 8 8 8 8 8 7 8 7 7 6 4 4 4 4 5 5 5 5 6 6 6 7 7 7 7 7 8 8 9 7 7 6 6 6 7 8 7 9 9 10 9
7 7 7 7 8 8 7 7 7 7 7 6 6 7 6 6 6 5 5 6 6 6 7 7 7 7 7 8 9 9 8 9 7 7 8 9 8 7 7 7 9 10 10
6 6 6 6 6 6 6 6 6 6 6 7 7 7 7 6 5 5 6 6 5 6 7 7 7 8 8 9 9 9 10 9 9 8 8 9 8 10 9 10 9 9 9
4 4 4 5 5 5 5 5 6 6 6 6 7 7 8 7 7 6 6 5 5 5 7 7 8 8 8 9 9 10 11 10 10 10 9 9 8 8 9 10 10 10 9
2 3 4 4 4 4 4 5 6 5 5 6 6 7 8 8 8 7 6 6 6 6 7 7 8 8 8 9 9 9 10 11 11 11 10 10 10 9 9 10 10 11 9
1 2 2 3 4 4 4 4 5 5 5 5 5 5 6 6 6 7 7 7 7 7 8 8 8 9 9 9 9 9 10 10 10 11 12 10 10 9 10 10 9 10 10
1 1 1 1 3 3 4 4 5 5 5 4 4 5 5 5 6 6 7 7 7 7 8 8 9 9 9 10 9 9 10 10 10 10 11 10 10 9 9 9 9 9 10
2 1 1 1 1 2 3 3 4 4 4 4 4 4 4 5 5 6 7 7 8 8 8 9 9 10 10 10 10 9 10 11 10 9 11 11 9 9 9 9 9 10 11
1 1 1 1 1 1 2 2 2 3 3 3 3 4 4 5 5 5 6 7 7 8 8 9 9 10 10 10 10 10 11 11 10 10 11 11 11 9 9 9 9 9 9
2 2 2 2 1 1 2 2 2 3 3 3 3 4 4 5 5 6 6 7 8 8 8 8 9 10 10 10 10 10 10 10 10 10 10 11 9 10 9 8 9 9 9
3 3 3 3 2 2 2 2 2 2 2 3 3 4 4 5 5 6 6 6 7 7 7 7 8 9 9 9 9 10 10 10 10 10 11 10 10 11 9 9 9 8 7
3 4 4 4 3 3 3 3 3 3 3 3 3 4 5 5 6 6 6 6 6 6 7 7 8 8 9 9 9 9 9 9 9 9 10 10 10 10 10 9 10 8 8
3 4 5 5 4 4 4 4 4 3 3 3 4 5 5 5 5 5 6 6 6 6 6 7 7 8 8 7 8 9 9 9 9 9 9 10 10 11 10 8 8 8 7
4 5 6 6 5 5 5 5 4 4 3 4 4 4 5 5 5 5 5 6 6 6 6 7 7 7 7 9 10 10 8 8 9 9 9 8 9 10 11 11 10 9 8
5 5 6 6 6 6 5 5 5 4 4 4 4 4 4 5 5 5 5 5 6 5 6 7 7 7 8 9 10 10 8 8 7 8 8 7 6 8 8 8 9 9 10
5 5 5 6 6 6 6 5 4 4 4 4 4 4 4 5 5 5 5 5 5 5 6 7 7 7 8 8 8 9 7 7 7 7 7 7 7 7 7 7 6 7 7
4 5 5 5 6 5 5 4 4 4 4 4 5 5 5 5 5 5 5 5 5 6 6 6 6 7 7 7 7 8 5 6 7 7 7 6 6 6 6 6 6 5 5
4 4 5 5 5 5 5 4 5 5 5 5 6 6 5 5 5 5 6 5 5 5 5 6 6 7 7 8 8 7 5 5 6 6 6 6 6 6 6 5 5 4 4
4 4 4 4 5 5 4 4 5 5 6 6 6 6 5 5 5 5 5 5 5 5 5 5 6 6 6 7 7 7 4 5 5 5 5 4 5 5 5 6 4 4 4
4 4 4 5 5 5 5 5 6 6 6 5 5 6 5 5 4 4 4 4 4 5 5 5 6 5 5 6 6 6 6 5 5 5 4 3 3 4 5 3 2 2 3
4 4 4 5 5 5 5 5 6 6 6 5 5 5 5 5 4 4 4 4 4 4 5 5 5 5 5 4 5 5 5 6 4 3 3 3 4 4 3 2 3 3 2
4 4 5 5 6 6 5 5 6 6 5 5 5 5 5 5 4 4 3 4 4 4 5 5 5 5 5 4 4 3 3 3 3 3 3 2 2 2 2 3 2 2 1
4 4 4 5 6 6 6 6 6 5 6 6 5 5 5 5 4 4 4 4 4 5 5 5 5 5 6 6 6 5 4 3 3 3 2 2 1 1 1 2 2 2 1
4 4 5 5 6 6 6 6 6 5 5 5 5 4 4 4 4 4 4 4 5 6 7 7 7 6 6 8 7 6 5 5 4 2 2 2 1 1 1 1 2 2 1
Wind_Direction
226 216 212 211 211 210 208 205 206 204 203 203 208 215 223 224 227 231 237 240 244 246 249 255 258 257 256 258 261 265 268 272 277 279 280 274 266 258 259 258 258 259 259
222 215 213 210 211 210 209 208 208 206 208 210 213 222 231 230 233 234 236 239 242 245 248 250 255 256 258 257 257 259 262 269 265 272 283 279 272 259 256 256 255 258 258
220 213 211 214 213 210 208 209 209 210 210 209 209 213 229 229 231 234 238 242 246 246 247 251 255 256 256 255 255 255 255 262 262 256 259 269 271 285 262 255 254 254 255
223 219 216 216 214 212 208 211 209 211 211 207 212 217 230 233 239 240 245 251 251 252 249 250 254 257 257 256 255 255 256 254 257 258 254 259 274 274 278 265 256 258 259
225 225 221 217 215 209 206 210 209 211 213 213 217 224 238 238 241 243 248 255 254 252 252 252 254 255 256 257 257 256 254 252 253 254 255 259 261 260 265 275 276 269 262
230 233 227 216 211 203 202 207 208 212 214 215 219 225 239 241 242 245 249 255 256 254 254 255 254 255 255 256 257 256 253 252 253 253 251 251 254 254 257 267 273 274 275
236 233 227 216 209 205 206 211 211 215 216 217 224 232 242 242 243 246 249 256 259 260 261 261 261 259 257 257 257 256 255 254 253 252 253 253 254 256 258 263 272 274 279
280 255 237 217 210 212 214 217 221 225 228 229 233 242 247 246 247 249 252 255 259 263 266 266 265 264 263 261 257 257 257 255 255 255 254 255 254 254 252 255 264 272 275
325 301 263 216 211 214 221 226 228 233 234 241 243 250 250 250 252 255 257 260 262 266 266 268 268 266 265 263 262 257 257 256 255 256 256 255 253 249 249 250 252 257 267
339 335 303 294 240 224 232 238 237 234 239 243 247 249 254 256 257 261 263 264 266 268 268 269 269 267 265 263 262 264 260 258 257 257 256 256 254 250 248 247 249 252 257
344 2 346 333 297 251 244 254 259 249 249 255 257 260 267 267 266 267 268 269 271 272 272 272 272 270 268 265 262 262 264 261 261 259 257 255 253 250 248 248 249 251 251
1 11 5 3 344 307 297 285 283 268 263 262 264 268 275 277 274 274 275 276 276 276 276 275 274 274 274 271 264 263 264 263 263 262 259 256 254 252 250 247 249 251 249
2 5 3 2 353 333 328 312 300 294 282 274 275 278 282 284 284 286 288 286 283 284 281 277 277 278 278 276 272 267 266 266 265 266 260 257 253 253 253 249 249 252 253
341 345 345 345 341 336 334 319 312 308 302 293 286 284 288 290 292 292 293 291 288 286 283 282 282 283 283 280 277 273 269 268 267 267 261 255 253 254 254 249 247 248 251
331 333 334 336 333 328 326 323 312 308 308 298 290 287 290 292 292 289 291 292 289 284 285 286 287 287 284 281 281 279 271 268 269 268 263 256 254 255 255 253 250 246 250
332 334 334 334 330 321 319 317 308 306 305 296 291 293 296 299 294 293 295 294 290 287 288 288 287 288 287 290 288 282 274 271 271 273 272 264 257 255 255 256 255 249 247
330 331 329 327 326 323 315 309 306 303 301 297 295 295 298 298 295 296 299 297 294 291 289 287 286 288 291 294 289 286 280 275 275 276 278 275 267 262 259 259 258 255 251
327 326 327 329 327 324 322 320 316 308 306 304 303 304 301 297 298 300 301 301 298 291 288 290 292 292 293 300 301 297 288 282 280 277 277 274 273 266 265 267 269 269 268
327 326 329 329 328 329 331 330 327 324 320 316 312 307 300 294 296 298 300 304 304 298 295 295 293 291 294 302 303 300 291 286 287 284 280 276 276 272 264 265 269 272 281
337 332 331 333 333 333 334 331 327 327 324 321 314 307 300 293 292 296 300 301 300 300 300 296 292 290 292 299 301 297 283 285 288 288 282 277 274 277 265 265 265 266 282
341 337 329 330 330 329 328 322 321 319 318 317 313 309 306 301 298 301 301 302 302 301 301 302 302 300 298 301 299 296 282 282 288 288 287 290 298 297 286 273 265 260 284
339 338 334 333 333 334 332 323 319 317 317 315 309 309 310 309 304 303 306 306 304 302 302 303 307 307 305 303 300 298 288 288 282 282 284 294 318 320 319 299 285 291 289
331 332 330 327 330 334 331 321 320 322 320 316 311 311 314 312 308 306 308 310 308 302 303 305 307 311 314 315 309 304 299 300 286 277 289 298 308 310 311 340 337 320 291
327 329 327 325 328 332 329 321 319 320 318 314 315 316 315 314 314 313 307 305 304 301 301 303 305 308 309 312 312 308 308 307 295 288 295 302 316 304 318 337 342 336 337
322 323 318 316 319 324 324 326 324 322 315 312 311 311 311 308 311 312 313 307 304 300 298 297 297 300 300 308 314 307 298 292 288 291 293 299 313 330 342 345 350 359 11
310 309 309 311 315 318 318 322 322 316 309 306 306 306 305 306 307 312 318 326 309 316 311 305 298 299 298 306 307 307 304 299 291 284 279 289 300 313 324 330 342 352 359
Height
1464 1465 1466 1468 1469 1471 1473 1474 1476 1478 1479 1480 1481 1482 1482 1483 1483 1483 1484 1483 1483 1483 1483 1482 1482 1482 1481 1481 1481 1481 1480 1479 1479 1478 1476 1475 1474 1473 1473 1473 1472 1472 1471
1459 1460 1461 1463 1464 1466 1468 1470 1471 1473 1475 1476 1477 1478 1478 1478 1479 1479 1479 1479 1479 1478 1478 1477 1477 1477 1476 1476 1476 1476 1475 1475 1475 1475 1473 1470 1469 1468 1468 1467 1466 1466 1466
1455 1456 1457 1458 1460 1461 1463 1465 1466 1468 1470 1471 1472 1473 1473 1474 1474 1474 1474 1474 1474 1474 1473 1473 1472 1472 1472 1471 1471 1471 1470 1470 1470 1470 1471 1468 1464 1463 1462 1461 1461 1460 1459
1451 1452 1453 1454 1455 1457 1459 1460 1462 1464 1465 1467 1467 1468 1468 1469 1469 1469 1469 1469 1469 1469 1468 1468 1467 1467 1466 1466 1466 1466 1465 1465 1464 1464 1464 1464 1462 1461 1456 1455 1455 1455 1454
1447 1448 1449 1450 1451 1453 1454 1456 1458 1459 1461 1462 1463 1464 1464 1465 1465 1465 1465 1464 1464 1464 1463 1463 1462 1461 1461 1460 1460 1460 1459 1459 1458 1458 1458 1457 1457 1456 1454 1450 1449 1449 1448
1444 1445 1445 1446 1448 1449 1451 1452 1454 1455 1456 1457 1458 1459 1459 1460 1460 1460 1460 1459 1459 1459 1458 1458 1457 1456 1455 1455 1454 1454 1453 1453 1452 1452 1452 1451 1451 1450 1449 1446 1443 1442 1441
1441 1441 1442 1443 1444 1446 1447 1449 1450 1451 1452 1453 1453 1454 1455 1455 1455 1455 1455 1454 1454 1453 1453 1452 1451 1451 1450 1449 1448 1448 1447 1446 1446 1445 1445 1445 1444 1444 1444 1442 1439 1437 1435
1439 1439 1439 1440 1441 1443 1444 1445 1446 1447 1448 1449 1449 1450 1450 1450 1450 1450 1450 1449 1449 1448 1447 1447 1446 1445 1444 1443 1443 1441 1441 1440 1439 1438 1438 1438 1437 1437 1437 1436 1435 1432 1429
1438 1438 1438 1438 1439 1440 1441 1442 1442 1443 1444 1444 1444 1445 1446 1446 1446 1445 1445 1444 1444 1443 1442 1441 1440 1439 1439 1438 1437 1435 1434 1433 1432 1432 1431 1430 1430 1430 1429 1430 1430 1429 1425
1437 1437 1437 1437 1438 1439 1439 1439 1439 1440 1440 1441 1441 1441 1441 1441 1441 1440 1440 1439 1439 1438 1437 1435 1434 1433 1433 1432 1431 1429 1428 1427 1426 1425 1424 1423 1423 1422 1422 1422 1423 1422 1421
1436 1436 1436 1436 1436 1437 1437 1437 1437 1437 1437 1437 1437 1437 1437 1437 1436 1436 1435 1434 1433 1432 1431 1430 1428 1427 1427 1425 1424 1423 1422 1420 1419 1418 1417 1416 1416 1415 1415 1415 1415 1415 1415
1435 1435 1435 1435 1435 1435 1435 1435 1434 1434 1434 1434 1434 1433 1433 1433 1432 1431 1430 1429 1428 1427 1425 1424 1423 1422 1420 1419 1418 1416 1415 1414 1412 1411 1410 1409 1409 1409 1409 1409 1408 1408 1408
1435 1435 1434 1434 1434 1433 1433 1432 1431 1431 1431 1430 1430 1430 1429 1429 1427 1426 1425 1424 1423 1421 1420 1418 1417 1415 1414 1413 1411 1410 1409 1408 1406 1405 1404 1403 1402 1402 1402 1402 1402 1402 1402
1435 1434 1434 1433 1433 1432 1431 1430 1429 1428 1428 1427 1426 1426 1425 1424 1423 1422 1421 1419 1418 1416 1415 1413 1412 1410 1408 1407 1406 1405 1403 1401 1400 1399 1398 1397 1396 1396 1396 1396 1396 1396 1396
1434 1433 1433 1432 1431 1430 1429 1428 1426 1426 1425 1424 1423 1422 1421 1420 1419 1418 1416 1415 1413 1411 1410 1408 1406 1405 1403 1402 1400 1399 1397 1396 1394 1393 1392 1391 1391 1390 1391 1390 1390 1390 1390
1433 1432 1431 1430 1429 1428 1426 1425 1424 1423 1421 1420 1419 1419 1418 1416 1415 1414 1412 1410 1408 1407 1405 1403 1401 1399 1398 1396 1395 1394 1392 1391 1389 1388 1386 1386 1385 1385 1385 1385 1385 1385 1384
1431 1431 1429 1428 1427 1426 1424 1422 1421 1420 1418 1417 1416 1415 1414 1413 1411 1410 1408 1406 1404 1402 1400 1399 1397 1395 1393 1391 1390 1389 1388 1386 1385 1383 1382 1381 1381 1380 1380 1380 1380 1379 1379
1430 1429 1427 1426 1424 1423 1421 1419 1418 1416 1415 1414 1413 1412 1410 1409 1408 1406 1404 1402 1400 1398 1396 1394 1392 1390 1388 1387 1385 1384 1383 1381 1380 1379 1378 1377 1376 1376 1375 1375 1374 1373 1373
1429 1428 1426 1424 1422 1421 1419 1417 1415 1414 1413 1411 1410 1408 1407 1406 1404 1402 1401 1399 1397 1395 1392 1390 1388 1386 1384 1383 1381 1380 1379 1377 1376 1374 1374 1373 1372 1371 1371 1371 1369 1368 1368
1428 1426 1425 1423 1421 1419 1417 1415 1413 1412 1410 1409 1407 1406 1404 1403 1401 1399 1398 1396 1394 1391 1389 1387 1385 1383 1380 1379 1377 1376 1375 1373 1372 1371 1370 1369 1368 1367 1367 1367 1366 1365 1364
1426 1424 1423 1421 1419 1417 1415 1413 1411 1410 1408 1406 1405 1403 1402 1400 1398 1396 1395 1393 1391 1388 1386 1383 1381 1379 1377 1375 1374 1373 1372 1371 1369 1368 1367 1366 1365 1364 1363 1363 1363 1362 1362
1423 1422 1420 1419 1417 1415 1413 1411 1409 1408 1406 1404 1402 1400 1399 1397 1396 1394 1392 1390 1388 1385 1383 1380 1378 1376 1374 1372 1371 1369 1369 1368 1367 1365 1365 1364 1363 1361 1360 1360 1360 1359 1359
1421 1420 1418 1416 1415 1413 1411 1409 1407 1405 1403 1402 1400 1398 1397 1395 1393 1391 1389 1387 1385 1383 1380 1378 1375 1373 1372 1370 1368 1367 1366 1365 1364 1364 1363 1362 1361 1360 1359 1358 1357 1357 1356
1419 1417 1416 1414 1412 1411 1409 1407 1405 1403 1401 1399 1398 1396 1394 1392 1391 1389 1386 1384 1382 1380 1378 1375 1373 1371 1369 1367 1366 1365 1364 1363 1362 1362 1361 1360 1359 1358 1358 1357 1356 1355 1354
1416 1415 1413 1412 1410 1408 1407 1405 1403 1401 1399 1397 1395 1394 1392 1390 1388 1386 1384 1382 1380 1378 1376 1373 1371 1369 1367 1365 1364 1363 1362 1361 1361 1360 1359 1358 1358 1357 1356 1355 1355 1354 1353
1413 1412 1411 1409 1407 1406 1404 1402 1400 1399 1397 1395 1393 1391 1389 1387 1385 1383 1380 1379 1377 1375 1373 1371 1369 1367 1365 1363 1362 1361 1361 1360 1360 1359 1358 1357 1357 1356 1355 1355 1354 1353 1353